Cut Bank, MT

3:18 PM MST on November 21, 2019 (GMT -0700)
Cut Bank Municipal

Weather History for KCTB - September, 2019

Change the Weather History Date:

Wednesday, September 11, 2019

  Actual Average Record
Temperature  
Mean Temperature 52 °F 55 °F  
Max Temperature 63 °F 70 °F 90 °F (1981)
Min Temperature 42 °F 41 °F 24 °F (1949)
Degree Days  
Heating Degree Days 12 10  
Month to date heating degree days 92  
Since 1 July heating degree days 286  
Cooling Degree Days 0 0  
Month to date cooling degree days 6  
Year to date cooling degree days 159  
Growing Degree Days 2 (Base 50)    
Moisture  
Dew Point 40 °F    
Average Humidity 79    
Maximum Humidity 100    
Minimum Humidity 38    
Precipitation  
Precipitation 0.00 in 0.04 in 1.34 in (1978)
Month to date precipitation 0.49  
Year to date precipitation 9.15  
Snow  
Snow - - - ()
Snow Depth -    
Sea Level Pressure  
Sea Level Pressure 30.17 in    
Wind  
Wind Speed 6 mph ()    
Max Wind Speed 10 mph    
Max Gust Speed -    
Visibility 6.9 miles    
Events Fog    
T = Trace of Precipitation, MM = Missing Value Source: Averaged Metar Reports

Daily Weather History Graph

Daily Weather History Graph

Search for Another Location

Airport or City:

Astronomy

Sep. 11, 2019 Rise Set
Actual Time 7:00 AM MDT 7:50 PM MDT
Civil Twilight 6:28 AM MDT 8:22 PM MDT
Nautical Twilight 5:50 AM MDT 9:00 PM MDT
Astronomical Twilight 5:10 AM MDT 9:40 PM MDT
Moon 7:20 PM MDT (9/11) 4:08 AM MDT (9/11)
Length of Visible Light 13h 54m
Length of Day
12h 50m
Waxing Gibbous, 95% of the Moon is Illuminated
Sep 11
Waxing Gibbous
Sep 13
Full
Sep 21
Last Quarter
Sep 28
New
Oct 5
First Quarter

Hourly Weather History & Observations

Time (MDT) Temp. Windchill Dew Point Humidity Pressure Visibility Wind Dir Wind Speed Gust Speed Precip Events Conditions
12:56 AM 46.0 °F 42.5 °F 43.0 °F 89% 30.14 in 10.0 mi NNE 6.9 mph - N/A   Overcast
1:36 AM 46.0 °F 42.5 °F 43.0 °F 89% 30.14 in 10.0 mi NNE 6.9 mph - N/A   Overcast
2:56 AM 46.0 °F 43.1 °F 43.0 °F 89% 30.14 in 10.0 mi NNE 5.8 mph - N/A   Overcast
3:30 AM 46.0 °F 42.5 °F 42.1 °F 86% 30.13 in 10.0 mi North 6.9 mph - N/A   Overcast
3:54 AM 44.6 °F 40.2 °F 42.8 °F 93% 30.14 in 10.0 mi North 8.1 mph - N/A   Overcast
3:56 AM 44.1 °F 39.5 °F 42.1 °F 93% 30.14 in 10.0 mi North 8.1 mph - N/A   Overcast
4:18 AM 43.0 °F 38.2 °F 41.0 °F 93% 30.14 in 2.5 mi North 8.1 mph - N/A   Overcast
4:26 AM 43.0 °F 37.7 °F 41.0 °F 93% 30.14 in 0.8 mi North 9.2 mph - N/A   Overcast
4:48 AM 42.1 °F 37.1 °F 41.0 °F 96% 30.14 in 2.5 mi North 8.1 mph - N/A   Overcast
4:56 AM 42.1 °F 37.7 °F 41.0 °F 96% 30.16 in 5.0 mi North 6.9 mph - N/A   Overcast
5:10 AM 42.1 °F 40.2 °F 42.1 °F 100% 30.15 in 1.5 mi North 3.5 mph - N/A   Overcast
5:20 AM 43.0 °F - 42.1 °F 97% 30.15 in 0.5 mi Calm Calm - N/A Fog Fog
5:38 AM 43.0 °F 40.3 °F 42.1 °F 97% 30.15 in 1.5 mi North 4.6 mph - N/A   Overcast
5:45 AM 43.0 °F 40.3 °F 42.1 °F 97% 30.15 in 3.0 mi North 4.6 mph - N/A   Overcast
5:56 AM 43.0 °F - 42.1 °F 97% 30.17 in 6.0 mi Calm Calm - N/A   Overcast
6:23 AM 43.0 °F 38.8 °F 41.0 °F 93% 30.16 in 1.8 mi North 6.9 mph - N/A   Overcast
6:53 AM 42.8 °F 38.0 °F 42.8 °F 100% 30.16 in 0.8 mi North 8.1 mph - N/A   Mist
6:56 AM 43.0 °F 38.2 °F 42.1 °F 97% 30.18 in 0.8 mi North 8.1 mph - N/A   Mist
7:19 AM 43.0 °F 37.7 °F 41.0 °F 93% 30.16 in 0.2 mi North 9.2 mph - N/A Fog Fog
7:40 AM 43.0 °F 37.2 °F 41.0 °F 93% 30.16 in 0.5 mi North 10.4 mph - N/A Fog Fog
7:56 AM 42.1 °F 36.1 °F 41.0 °F 96% 30.20 in 0.5 mi North 10.4 mph - N/A Fog Fog
8:12 AM 42.1 °F 37.1 °F 41.0 °F 96% 30.18 in 10.0 mi North 8.1 mph - N/A   Overcast
8:56 AM 43.0 °F 37.7 °F 39.9 °F 89% 30.21 in 10.0 mi North 9.2 mph - N/A   Overcast
9:56 AM 45.0 °F 41.2 °F 41.0 °F 86% 30.20 in 10.0 mi North 6.9 mph - N/A   Overcast
10:56 AM 50.0 °F - 41.0 °F 71% 30.19 in 10.0 mi North 3.5 mph - N/A   Mostly Cloudy
11:18 AM 51.1 °F - 41.0 °F 68% 30.18 in 10.0 mi North 3.5 mph - N/A   Scattered Clouds
11:56 AM 54.0 °F - 41.0 °F 62% 30.18 in 10.0 mi Variable 5.8 mph - N/A   Partly Cloudy
12:56 PM 55.0 °F - 39.0 °F 55% 30.17 in 10.0 mi ESE 5.8 mph - N/A   Mostly Cloudy
1:56 PM 57.0 °F - 37.9 °F 49% 30.17 in 10.0 mi NE 6.9 mph - N/A   Overcast
2:56 PM 57.9 °F - 35.1 °F 42% 30.16 in 10.0 mi East 4.6 mph - N/A   Partly Cloudy
3:56 PM 60.1 °F - 37.0 °F 42% 30.15 in 10.0 mi Variable 3.5 mph - N/A   Partly Cloudy
4:56 PM 61.0 °F - 36.0 °F 39% 30.14 in 10.0 mi Variable 4.6 mph - N/A   Clear
5:56 PM 63.0 °F - 37.0 °F 38% 30.14 in 10.0 mi NW 3.5 mph - N/A   Clear
6:56 PM 62.1 °F - 36.0 °F 38% 30.15 in 10.0 mi ENE 3.5 mph - N/A   Clear
7:56 PM 54.0 °F - 39.0 °F 57% 30.19 in 10.0 mi East 9.2 mph - N/A   Clear
8:56 PM 51.1 °F - 39.0 °F 63% 30.22 in 10.0 mi East 5.8 mph - N/A   Clear
9:56 PM 48.9 °F - 37.9 °F 66% 30.22 in 10.0 mi SSE 4.6 mph - N/A   Clear
10:56 PM 48.9 °F - 37.0 °F 64% 30.22 in 10.0 mi Calm Calm - N/A   Clear
11:56 PM 46.0 °F 43.1 °F 36.0 °F 68% 30.20 in 10.0 mi SE 5.8 mph - N/A   Clear